When you browse on this site, cookies collect data to enhance your experience and personalize the content and advertising you see.
Visit our Privacy Policy to learn more. By continuing to use the site, you agree to this use of cookies and data.
  • In Hungary
  • List of Countries
  • For 7 days
  • Water Temperature
  • Weather Map
  • News
  • Weather Widgets
  • user-avatar
    Login

    Hourly Weather Kukuevka

    Today, 22 October, Tuesday

    Time Temperature Precipitation Wind Pressure Humidity
    00:00 +7°C° 0 mm 1 mps 760 mmHg 88%
    01:00 +7°C° 0 mm 1 mps 760 mmHg 91%
    02:00 +5°C° 0 mm 2 mps 760 mmHg 93%
    03:00 +5°C° 0 mm 2 mps 759 mmHg 93%
    04:00 +6°C° 0 mm 2 mps 759 mmHg 93%
    05:00 +6°C° 0 mm 2 mps 759 mmHg 92%
    06:00 +6°C° 0 mm 2 mps 758 mmHg 93%
    07:00 +5°C° 0 mm 3 mps 758 mmHg 94%
    08:00 +7°C° 0 mm 3 mps 758 mmHg 94%
    09:00 +8°C° 0 mm 3 mps 757 mmHg 93%
    10:00 +8°C° 0 mm 4 mps 756 mmHg 91%
    11:00 +11°C° 0 mm 4 mps 756 mmHg 90%
    12:00 +12°C° 0 mm 4 mps 755 mmHg 89%
    13:00 +12°C° 0 mm 5 mps 755 mmHg 88%
    14:00 +13°C° 0 mm 5 mps 755 mmHg 88%
    15:00 +13°C° 0 mm 5 mps 754 mmHg 87%
    16:00 +13°C° 0 mm 4 mps 754 mmHg 87%
    17:00 +12°C° 0 mm 4 mps 754 mmHg 86%
    18:00 +12°C° 0 mm 4 mps 754 mmHg 86%
    19:00 +11°C° 0 mm 4 mps 754 mmHg 87%
    20:00 +10°C° 0 mm 5 mps 754 mmHg 87%
    21:00 +11°C° 0 mm 4 mps 754 mmHg 87%
    22:00 +11°C° 0 mm 4 mps 754 mmHg 86%
    23:00 +11°C° 0 mm 4 mps 754 mmHg 86%

    Tomorrow, 23 October, Wednesday

    Time Temperature Precipitation Wind Pressure Humidity
    00:00 +11°C° 0 mm 4 mps 754 mmHg 86%
    01:00 +11°C° 0 mm 4 mps 754 mmHg 85%
    02:00 +11°C° 0 mm 4 mps 754 mmHg 85%
    03:00 +11°C° 0 mm 4 mps 754 mmHg 86%
    04:00 +10°C° 0 mm 4 mps 754 mmHg 87%
    05:00 +10°C° 0 mm 4 mps 754 mmHg 89%
    06:00 +10°C° 0 mm 4 mps 754 mmHg 89%
    07:00 +8°C° 0 mm 4 mps 754 mmHg 89%
    08:00 +9°C° 0 mm 3 mps 755 mmHg 89%
    09:00 +10°C° 0 mm 4 mps 755 mmHg 83%
    10:00 +11°C° 0 mm 4 mps 755 mmHg 78%
    11:00 +12°C° 0 mm 4 mps 755 mmHg 73%
    12:00 +11°C° 0 mm 4 mps 755 mmHg 73%
    13:00 +11°C° 0 mm 4 mps 755 mmHg 73%
    14:00 +11°C° 0 mm 4 mps 756 mmHg 73%
    15:00 +11°C° 0 mm 4 mps 756 mmHg 75%
    16:00 +10°C° 0 mm 3 mps 756 mmHg 76%
    17:00 +10°C° 0 mm 3 mps 756 mmHg 77%
    18:00 +9°C° 0 mm 3 mps 756 mmHg 77%
    19:00 +9°C° 0 mm 3 mps 756 mmHg 77%
    20:00 +9°C° 0 mm 3 mps 756 mmHg 78%
    21:00 +9°C° 0 mm 3 mps 757 mmHg 78%
    22:00 +9°C° 0 mm 2 mps 757 mmHg 79%
    23:00 +9°C° 0 mm 2 mps 757 mmHg 80%

    Day after tomorrow, 24 October, Thursday

    Time Temperature Precipitation Wind Pressure Humidity
    00:00 +9°C° 0 mm 2 mps 757 mmHg 79%
    01:00 +9°C° 0 mm 2 mps 757 mmHg 79%
    02:00 +9°C° 0 mm 2 mps 757 mmHg 78%
    03:00 +8°C° 0 mm 2 mps 757 mmHg 78%
    04:00 +8°C° 0 mm 2 mps 757 mmHg 78%
    05:00 +8°C° 0 mm 2 mps 757 mmHg 77%
    06:00 +8°C° 0 mm 2 mps 757 mmHg 77%
    07:00 +8°C° 0 mm 2 mps 757 mmHg 77%
    08:00 +8°C° 0 mm 2 mps 758 mmHg 77%
    09:00 +8°C° 0 mm 2 mps 758 mmHg 75%
    10:00 +9°C° 0 mm 3 mps 758 mmHg 74%
    11:00 +9°C° 0 mm 3 mps 758 mmHg 72%
    12:00 +9°C° 0 mm 3 mps 758 mmHg 73%
    13:00 +9°C° 0 mm 3 mps 758 mmHg 73%
    14:00 +9°C° 0 mm 3 mps 758 mmHg 74%
    15:00 +9°C° 0 mm 2 mps 758 mmHg 75%
    16:00 +9°C° 0 mm 2 mps 758 mmHg 77%
    17:00 +8°C° 0 mm 2 mps 758 mmHg 79%
    18:00 +8°C° 0 mm 2 mps 758 mmHg 80%
    19:00 +8°C° 0 mm 2 mps 758 mmHg 82%
    20:00 +7°C° 0 mm 2 mps 758 mmHg 84%
    21:00 +7°C° 0 mm 2 mps 758 mmHg 86%
    22:00 +6°C° 0 mm 2 mps 758 mmHg 88%
    23:00 +6°C° 0 mm 2 mps 758 mmHg 91%

    25 October, Friday

    Time Temperature Precipitation Wind Pressure Humidity
    00:00 +6°C° 0 mm 2 mps 758 mmHg 92%
    01:00 +6°C° 0 mm 2 mps 758 mmHg 94%
    02:00 +5°C° 0 mm 2 mps 758 mmHg 95%
    03:00 +4°C° 0 mm 3 mps 757 mmHg 95%
    04:00 +4°C° 0 mm 3 mps 757 mmHg 95%
    05:00 +4°C° 0 mm 3 mps 757 mmHg 95%
    06:00 +4°C° 0 mm 4 mps 756 mmHg 94%
    07:00 +5°C° 0 mm 4 mps 756 mmHg 92%
    08:00 +5°C° 0 mm 4 mps 755 mmHg 91%
    09:00 +6°C° 0 mm 5 mps 755 mmHg 85%
    10:00 +8°C° 0 mm 5 mps 754 mmHg 79%
    11:00 +9°C° 0 mm 5 mps 754 mmHg 74%
    12:00 +10°C° 0 mm 5 mps 753 mmHg 73%
    13:00 +11°C° 0 mm 6 mps 752 mmHg 73%
    14:00 +13°C° 0 mm 6 mps 752 mmHg 73%
    15:00 +13°C° 0 mm 5 mps 752 mmHg 78%
    16:00 +12°C° 0 mm 5 mps 751 mmHg 82%
    17:00 +12°C° 0 mm 4 mps 751 mmHg 87%
    18:00 +12°C° 0 mm 4 mps 751 mmHg 88%
    19:00 +12°C° 0 mm 4 mps 751 mmHg 88%
    20:00 +12°C° 0 mm 4 mps 751 mmHg 89%
    21:00 +12°C° 0 mm 4 mps 751 mmHg 86%
    22:00 +12°C° 0 mm 5 mps 751 mmHg 84%
    23:00 +12°C° 0 mm 5 mps 752 mmHg 82%

    26 October, Saturday

    Time Temperature Precipitation Wind Pressure Humidity
    00:00 +12°C° 0 mm 5 mps 752 mmHg 82%
    01:00 +10°C° 0 mm 5 mps 752 mmHg 83%
    02:00 +9°C° 0 mm 5 mps 752 mmHg 83%
    03:00 +10°C° 0 mm 4 mps 752 mmHg 84%
    04:00 +10°C° 0 mm 4 mps 752 mmHg 85%
    05:00 +8°C° 0 mm 4 mps 752 mmHg 86%
    06:00 +8°C° 0 mm 4 mps 751 mmHg 86%
    07:00 +8°C° 0 mm 5 mps 751 mmHg 86%
    08:00 +8°C° 0 mm 5 mps 750 mmHg 86%
    09:00 +9°C° 0 mm 5 mps 750 mmHg 82%
    10:00 +10°C° 0 mm 6 mps 749 mmHg 78%
    11:00 +10°C° 0 mm 6 mps 748 mmHg 74%
    12:00 +11°C° 0 mm 7 mps 747 mmHg 72%
    13:00 +11°C° 0 mm 7 mps 746 mmHg 69%
    14:00 +12°C° 0 mm 8 mps 745 mmHg 67%
    15:00 +12°C° 0.3 mm 8 mps 745 mmHg 71%
    16:00 +11°C° 0.3 mm 8 mps 745 mmHg 75%
    17:00 +11°C° 0.3 mm 8 mps 744 mmHg 79%
    18:00 +10°C° 0.1 mm 7 mps 745 mmHg 76%
    19:00 +9°C° 0.1 mm 7 mps 745 mmHg 73%
    20:00 +9°C° 0.1 mm 6 mps 745 mmHg 69%
    21:00 +8°C° 0 mm 6 mps 745 mmHg 70%
    22:00 +7°C° 0 mm 6 mps 745 mmHg 70%
    23:00 +6°C° 0 mm 5 mps 745 mmHg 71%

    27 October, Sunday

    Time Temperature Precipitation Wind Pressure Humidity
    00:00 +6°C° 0 mm 5 mps 745 mmHg 72%
    01:00 +5°C° 0 mm 5 mps 746 mmHg 74%
    02:00 +4°C° 0 mm 6 mps 746 mmHg 76%
    03:00 +4°C° 0 mm 6 mps 746 mmHg 76%
    04:00 +4°C° 0 mm 6 mps 745 mmHg 77%
    05:00 +3°C° 0 mm 6 mps 745 mmHg 77%
    06:00 +4°C° 0 mm 6 mps 745 mmHg 77%
    07:00 +4°C° 0 mm 6 mps 745 mmHg 77%
    08:00 +4°C° 0 mm 6 mps 745 mmHg 76%
    09:00 +4°C° 0 mm 6 mps 745 mmHg 73%
    10:00 +5°C° 0 mm 6 mps 745 mmHg 69%
    11:00 +6°C° 0 mm 7 mps 745 mmHg 66%
    12:00 +7°C° 0.1 mm 6 mps 745 mmHg 64%
    13:00 +7°C° 0.1 mm 6 mps 745 mmHg 62%
    14:00 +7°C° 0.1 mm 6 mps 745 mmHg 60%
    15:00 +6°C° 0 mm 5 mps 745 mmHg 63%
    16:00 +5°C° 0 mm 5 mps 745 mmHg 66%
    17:00 +5°C° 0 mm 4 mps 744 mmHg 70%
    18:00 +3°C° 0 mm 5 mps 744 mmHg 71%
    19:00 +3°C° 0 mm 5 mps 744 mmHg 72%
    20:00 +3°C° 0 mm 5 mps 744 mmHg 73%
    21:00 +5°C° 0 mm 5 mps 743 mmHg 75%
    22:00 +5°C° 0 mm 5 mps 743 mmHg 77%
    23:00 +6°C° 0 mm 5 mps 743 mmHg 80%

    28 October, Monday

    Time Temperature Precipitation Wind Pressure Humidity
    00:00 +5°C° 0.1 mm 5 mps 743 mmHg 80%
    01:00 +5°C° 0.1 mm 5 mps 743 mmHg 81%
    02:00 +4°C° 0.1 mm 6 mps 743 mmHg 82%
    03:00 +5°C° 0 mm 5 mps 743 mmHg 82%
    04:00 +3°C° 0 mm 5 mps 743 mmHg 82%
    05:00 +2°C° 0 mm 5 mps 744 mmHg 82%
    06:00 +2°C° 0 mm 5 mps 744 mmHg 81%
    07:00 +2°C° 0 mm 5 mps 744 mmHg 80%
    08:00 +2°C° 0 mm 5 mps 744 mmHg 79%
    09:00 +3°C° 0 mm 5 mps 744 mmHg 72%
    10:00 +4°C° 0 mm 6 mps 745 mmHg 65%
    11:00 +5°C° 0 mm 7 mps 745 mmHg 59%
    12:00 +5°C° 0.1 mm 7 mps 745 mmHg 58%
    13:00 +5°C° 0.1 mm 6 mps 745 mmHg 57%
    14:00 +5°C° 0.1 mm 6 mps 744 mmHg 57%
    15:00 +5°C° 0 mm 5 mps 744 mmHg 61%
    16:00 +5°C° 0 mm 5 mps 744 mmHg 65%
    17:00 +4°C° 0 mm 4 mps 744 mmHg 69%
    18:00 +3°C° 0 mm 4 mps 744 mmHg 73%
    19:00 +3°C° 0 mm 4 mps 744 mmHg 76%
    20:00 +3°C° 0 mm 4 mps 744 mmHg 80%
    21:00 +1°C° 0.1 mm 4 mps 744 mmHg 84%
    22:00 +1°C° 0.1 mm 4 mps 744 mmHg 87%
    23:00 +1°C° 0.1 mm 4 mps 744 mmHg 91%
    Show more